Probability
86 81 75 73 71 66 59 53 43 34 30 29 25 20 14 14 21 30 38 46 56 69 81 89 93 95 94 92 89 83 73 64 55 40 21 8 3 3 4 4 2 1 0
75 68 58 52 51 48 45 42 37 31 27 24 21 15 10 10 14 21 29 37 47 60 74 83 89 92 91 88 85 80 73 65 55 41 22 8 2 2 3 3 1 0 1
45 38 33 30 31 30 30 32 33 32 29 25 19 11 6 5 7 9 13 19 27 38 53 66 74 78 79 76 71 66 62 56 46 36 23 10 2 0 1 1 0 0 1
15 16 18 22 22 20 21 25 30 32 31 26 18 8 3 3 4 3 3 5 8 14 26 41 51 56 58 58 52 46 46 43 34 27 21 13 4 1 0 0 0 0 1
5 9 14 17 14 11 13 19 25 27 26 21 12 4 1 1 2 2 1 1 0 2 9 21 31 37 40 40 35 32 33 32 26 20 16 11 7 3 1 0 0 0 0
4 6 8 8 5 5 10 17 20 21 22 18 10 5 1 0 1 1 0 0 0 0 3 9 16 21 24 24 24 23 21 19 16 12 8 7 6 4 2 0 0 0 0
1 2 2 1 1 4 11 17 18 20 21 18 12 6 3 0 0 0 0 0 0 0 0 2 4 7 8 11 14 14 11 8 6 4 3 2 2 2 1 0 0 0 0
0 0 0 0 1 4 10 14 15 17 20 16 10 5 2 0 0 0 0 0 0 0 0 0 0 0 1 3 6 6 5 2 1 0 0 0 0 0 0 0 0 0 0
0 0 0 0 1 3 7 9 11 13 14 10 5 2 0 0 0 0 0 0 0 0 0 0 0 0 0 1 2 2 2 1 0 0 0 0 0 0 0 0 0 0 0
0 0 0 0 1 2 4 4 6 8 8 6 3 1 0 0 0 0 0 0 0 0 0 0 0 0 0 0 1 1 1 0 0 0 0 0 0 0 0 0 0 0 0
0 0 0 0 1 1 1 2 3 5 6 4 1 0 0 0 0 0 0 0 0 0 0 0 0 0 0 0 0 0 0 0 0 0 0 0 0 0 0 0 0 0 0
0 0 0 0 0 0 1 1 2 4 3 1 0 0 0 0 0 0 0 0 0 0 0 0 0 0 0 0 0 0 0 0 0 0 0 0 0 0 0 0 0 0 0
0 0 0 0 0 0 0 1 2 2 1 0 0 0 0 0 0 0 0 0 0 0 0 0 0 0 0 0 0 0 0 0 0 0 0 0 0 0 0 0 0 0 0
0 0 0 0 0 0 0 0 1 1 0 0 0 0 0 0 0 0 0 0 0 0 0 0 0 0 0 0 0 0 0 0 0 0 0 0 0 0 0 0 0 0 0
0 0 0 0 0 0 0 0 0 0 0 0 0 0 0 0 0 0 0 0 0 0 0 0 0 0 0 0 0 0 0 0 0 0 0 0 0 0 0 0 0 0 0
0 0 0 0 0 0 0 0 0 0 0 0 0 0 0 0 0 0 0 0 0 0 0 0 0 0 0 0 0 0 0 0 0 0 0 0 0 0 0 0 0 0 0
0 0 0 0 0 0 0 0 0 0 0 0 0 0 0 0 0 0 0 0 0 0 0 0 0 0 0 0 0 0 0 0 0 0 0 0 0 0 0 0 0 0 0
0 0 0 0 0 0 0 0 0 0 0 0 0 0 0 0 0 0 0 0 0 0 0 0 0 0 0 0 0 0 0 0 0 0 0 0 0 0 0 0 0 0 0
0 0 0 0 0 0 0 0 0 0 0 0 0 0 0 0 0 0 0 0 0 0 0 0 0 0 0 0 0 0 0 0 0 0 0 0 0 0 0 0 0 0 0
0 0 0 0 0 0 0 0 0 0 0 0 1 0 0 0 0 0 0 0 0 0 0 0 0 0 0 0 0 0 0 0 0 0 0 0 0 0 0 0 0 0 0
0 0 0 0 0 0 0 0 0 0 0 0 0 0 0 0 0 0 0 0 0 0 0 0 0 0 0 0 0 0 0 0 0 0 0 0 0 0 0 0 0 0 0
0 0 0 0 0 0 0 0 0 0 0 0 0 0 0 0 0 0 0 0 0 0 0 0 0 0 0 0 0 0 0 0 0 0 0 0 0 0 0 0 0 0 0
0 0 0 0 0 0 0 0 0 0 0 0 0 0 0 0 0 0 0 0 0 0 0 0 0 0 0 0 0 0 0 0 0 0 0 0 0 0 0 0 0 0 0
0 0 0 0 0 0 0 0 0 0 0 0 0 0 0 0 0 0 0 0 0 0 0 0 0 0 0 0 0 0 0 0 0 0 0 0 0 0 0 0 0 0 0
0 0 0 0 0 0 0 0 0 0 0 0 0 0 0 0 0 0 0 0 0 0 0 0 0 0 0 0 0 0 0 0 0 0 0 0 0 0 0 0 0 0 0
0 0 0 0 0 0 0 0 0 0 0 0 0 0 0 0 0 0 0 0 0 0 0 0 0 0 0 0 0 0 0 0 0 0 0 0 0 0 0 0 0 0 0
Wind_Speed
6 6 6 7 6 6 5 4 4 2 1 0 1 2 3 3 4 5 6 7 7 7 6 6 7 7 7 8 8 6 6 6 4 3 4 5 7 9 9 7 7 8 10
5 5 5 5 5 5 4 4 4 3 2 2 2 2 3 4 4 5 6 7 7 7 7 7 6 7 7 8 8 7 5 5 5 5 3 4 4 6 9 7 7 7 6
8 6 5 5 5 5 5 5 6 4 3 2 1 1 2 3 4 5 5 6 7 7 7 8 7 7 6 7 8 8 8 7 5 6 6 4 6 4 3 5 4 3 1
6 6 6 6 7 7 6 6 6 4 2 2 1 1 2 4 6 6 6 7 8 8 7 7 7 7 6 7 8 8 6 7 6 5 6 6 4 4 3 3 2 2 2
8 9 9 9 8 7 7 6 5 3 2 2 1 1 3 4 5 6 8 8 8 7 8 7 7 7 6 7 8 7 7 6 6 5 4 5 5 6 5 4 3 2 2
8 8 8 7 6 5 5 5 5 3 2 2 2 1 3 5 7 8 8 8 7 7 8 8 7 7 7 8 8 7 7 6 6 5 5 4 4 4 5 5 3 2 2
7 7 8 8 7 6 5 5 5 3 2 2 1 1 2 4 5 7 7 8 7 7 8 8 7 7 7 7 7 6 6 5 5 5 4 4 3 2 3 3 2 1 1
7 7 8 7 6 7 6 6 5 4 3 3 1 0 1 2 3 4 5 6 6 8 9 9 8 8 7 6 5 4 4 4 4 4 4 2 2 2 2 2 2 1 1
6 6 6 6 7 8 7 7 7 5 5 4 2 1 0 1 3 4 4 5 6 7 9 9 8 7 5 5 5 4 4 4 4 3 3 2 2 1 1 1 2 3 2
3 4 5 6 7 7 7 7 7 7 6 5 4 2 1 1 2 3 5 6 7 7 8 9 8 6 4 3 3 3 4 4 3 3 3 2 1 1 1 1 2 2 3
2 2 4 5 6 6 7 7 7 6 6 6 4 4 3 2 1 2 4 5 5 7 8 8 8 6 4 2 1 2 4 4 3 3 4 3 2 2 1 1 2 2 3
5 4 4 4 5 7 7 7 7 7 7 6 5 5 4 3 2 3 4 5 5 6 7 7 7 6 4 2 2 3 4 5 5 4 4 4 4 4 3 3 4 4 5
11 10 8 6 5 6 6 7 7 8 7 6 6 5 5 4 3 3 3 4 4 5 6 6 7 7 6 5 6 7 7 7 7 6 6 5 7 6 5 6 7 7 8
12 13 12 11 8 7 6 7 7 7 7 7 7 6 6 6 5 3 2 3 3 4 5 5 7 7 8 9 9 10 10 10 9 7 6 6 7 7 7 8 9 9 9
15 14 13 11 11 11 10 8 7 7 7 7 7 7 7 6 5 4 3 2 1 2 3 4 6 7 7 8 9 9 10 9 9 8 8 8 10 11 9 8 7 8 7
14 14 13 13 13 13 13 12 10 9 7 8 8 7 6 6 5 5 3 2 1 0 1 3 4 6 5 8 10 9 8 8 8 8 7 8 9 11 14 14 12 9 8
15 15 13 12 12 13 13 15 14 10 8 8 7 7 7 7 6 5 4 4 3 2 2 2 4 5 4 9 11 11 8 7 7 7 6 7 7 8 7 10 12 12 11
14 14 13 12 11 11 12 15 15 10 8 8 7 7 8 8 7 6 5 5 4 4 3 3 3 4 5 10 12 12 9 8 7 6 7 7 7 6 7 8 8 7 6
10 10 10 10 10 11 12 14 16 12 8 8 8 9 9 9 8 7 6 5 4 4 4 4 5 5 5 9 12 11 7 7 6 5 6 7 7 10 11 9 8 7 6
11 11 10 9 10 10 10 11 13 13 11 9 7 8 9 10 10 9 7 5 5 5 6 5 5 6 5 8 12 11 6 6 5 4 5 8 9 10 11 8 8 8 5
14 12 11 9 8 9 9 10 10 11 12 12 9 7 9 11 11 9 7 6 6 6 6 6 5 5 5 7 11 12 6 6 5 4 3 3 9 10 10 8 6 6 5
13 12 10 9 8 8 7 9 10 10 11 12 10 7 8 10 10 10 9 8 8 8 7 6 5 3 4 5 8 12 11 9 7 5 3 3 8 9 9 7 9 11 9
12 10 10 10 9 8 7 8 10 10 11 11 11 9 8 9 10 12 11 9 8 8 7 7 6 4 3 3 7 11 14 13 6 5 8 8 9 8 6 9 11 8 6
12 10 9 10 10 9 8 8 9 9 10 11 10 9 8 9 9 10 10 10 10 9 8 8 7 6 4 4 3 4 7 9 6 4 6 6 7 6 5 6 6 4 4
12 10 10 10 12 10 9 8 8 7 9 10 9 8 8 8 9 10 11 12 11 13 11 9 9 10 8 9 12 9 6 6 6 6 3 2 3 3 3 3 3 3 4
12 11 11 11 11 10 9 8 7 7 8 8 8 7 7 6 7 9 7 10 10 16 16 14 12 9 11 16 16 14 13 13 13 7 4 3 3 3 4 4 3 2 3
Wind_Direction
128 115 109 106 102 100 102 106 112 120 119 97 296 294 290 289 289 280 274 272 268 264 253 247 238 226 224 226 220 215 219 226 205 214 259 259 245 246 249 248 253 257 258
132 127 122 117 116 123 125 136 150 169 177 196 217 238 263 278 276 282 289 283 280 275 271 254 247 237 231 231 224 213 213 223 196 192 220 275 287 252 243 238 239 251 263
164 162 153 149 149 158 165 170 184 189 193 196 208 307 313 308 305 302 295 289 289 286 278 268 257 248 234 233 231 221 216 228 222 201 195 208 236 270 271 236 225 240 287
169 173 173 175 181 189 182 177 179 173 172 148 111 305 293 291 287 288 287 290 288 286 283 276 266 253 239 236 237 231 222 222 232 222 215 216 206 219 267 281 247 247 257
183 188 189 193 196 188 180 172 154 144 138 113 93 332 302 292 299 302 300 298 294 288 284 278 269 257 244 237 235 230 221 217 224 221 215 224 227 220 224 252 264 283 277
202 204 206 200 197 186 168 150 139 136 123 91 58 16 324 317 319 318 313 307 302 298 291 285 272 260 249 238 232 225 218 217 219 219 211 205 206 208 213 223 229 248 264
214 212 209 203 197 182 167 156 147 147 138 114 78 17 337 326 319 318 317 317 313 308 301 294 280 267 252 241 226 214 210 205 206 209 207 203 206 196 194 192 201 214 311
228 221 215 203 192 184 173 168 162 166 169 159 154 129 345 324 311 314 317 317 312 307 303 299 287 275 260 241 214 199 194 187 191 192 182 180 187 187 189 183 165 127 50
228 220 208 192 186 181 181 180 175 181 186 183 171 165 326 325 315 318 319 316 316 315 318 313 304 293 272 237 201 189 180 170 174 174 171 169 163 173 173 173 158 138 125
220 205 195 195 192 187 188 187 183 188 191 187 181 176 197 253 300 316 318 318 319 322 326 328 324 317 304 256 196 172 166 161 169 169 161 138 116 135 176 177 166 158 143
256 240 228 211 200 193 189 192 193 191 194 194 189 184 198 221 275 300 303 308 314 322 328 329 330 329 326 333 155 151 149 152 141 128 122 110 101 100 100 115 116 124 120
347 316 278 240 213 205 202 202 201 200 202 197 193 193 199 205 234 280 297 307 315 323 330 335 342 347 354 17 71 106 116 123 117 107 102 104 102 89 84 87 84 84 87
8 358 344 315 265 234 219 212 209 209 203 194 194 198 201 202 215 251 284 308 324 335 344 358 5 9 22 45 65 79 82 89 91 92 96 95 94 85 78 80 83 84 86
18 11 2 352 329 297 262 233 222 213 203 194 194 200 203 200 204 218 255 298 325 347 357 10 18 25 42 57 66 75 78 77 75 77 79 79 83 83 81 82 87 95 91
14 9 1 355 350 337 313 282 249 224 205 193 196 205 202 194 193 202 228 272 306 349 1 22 38 39 52 70 78 81 86 84 79 70 65 66 71 73 77 87 89 93 92
1 358 355 353 348 341 334 311 276 245 211 198 202 201 190 187 188 196 204 212 228 274 41 50 56 55 69 91 94 99 94 89 83 75 64 60 57 68 71 75 77 88 97
348 345 343 342 341 337 334 327 298 265 223 207 199 190 186 185 188 187 184 195 199 185 141 99 84 77 90 107 105 103 99 90 83 77 71 71 62 66 70 66 62 61 71
334 331 328 328 329 333 334 331 320 283 236 213 201 191 184 185 181 177 184 192 183 174 161 140 119 101 104 115 110 103 94 88 82 82 87 83 63 66 82 73 59 48 43
308 309 313 314 317 325 331 335 335 316 274 229 206 195 186 181 177 178 184 183 171 166 158 153 142 116 103 118 120 110 99 91 79 75 78 88 79 75 81 78 70 52 26
309 309 310 313 316 319 324 332 336 334 319 288 241 204 190 183 181 180 176 171 166 164 154 154 152 133 120 122 126 119 115 105 95 75 66 77 88 81 80 83 81 70 41
298 299 300 301 300 308 319 324 326 327 321 312 286 231 199 189 182 174 168 163 161 157 157 154 154 145 139 129 137 139 134 136 129 115 98 84 94 90 86 85 84 95 95
288 290 290 287 286 291 306 313 313 312 313 313 301 261 216 196 182 172 170 165 162 162 163 155 152 152 155 149 152 156 156 151 141 146 146 132 112 101 93 84 90 86 80
280 281 280 283 284 281 284 295 299 307 312 311 310 292 242 208 181 176 173 169 168 170 173 167 165 165 164 169 162 160 161 157 143 155 159 147 120 100 86 86 88 82 78
271 269 271 276 279 276 273 270 284 298 303 304 307 303 264 218 190 180 176 175 177 177 177 176 173 164 159 164 157 144 146 146 131 131 146 129 103 88 87 79 74 78 95
273 265 263 265 269 269 268 270 277 286 291 295 298 301 278 225 196 187 185 183 186 184 179 183 176 170 175 188 173 159 158 158 151 130 99 87 85 83 78 75 79 80 81
283 276 268 261 262 263 263 265 268 267 277 289 293 292 286 246 203 185 181 191 181 184 183 182 177 183 180 171 176 175 171 166 154 132 132 146 147 145 145 139 121 102 104